Location: ?
(35.4996°N, 139.3166°E)
Time: 02:24:27
(UTC+00:00)

PAYLOAD A - Visible Passes

Search period start: 19 July 2024 00:00
Search period end: 29 July 2024 00:00
Orbit: 692 x 829 km, 98.5° (Epoch: 18 July)

Date Brightness Start Highest point End Pass type
(mag) Time Alt. Az. Time Alt. Az. Time Alt. Az.
19 Jul 5.9 17:33:15 10° NE 17:37:39 26° E 17:41:55 10° SSE visible
19 Jul 4.9 19:11:46 10° N 19:16:29 33° WNW 19:21:02 10° SW visible
20 Jul 6.8 16:58:32 10° E 16:59:07 10° E 16:59:42 10° E visible
20 Jul 4.0 18:33:14 10° N 18:38:34 77° WNW 18:43:40 10° SSW visible
21 Jul 5.0 17:55:22 10° NNE 18:00:24 44° E 18:05:14 10° S visible
22 Jul 6.3 17:18:28 10° NE 17:22:00 18° E 17:25:27 10° SE visible
22 Jul 4.5 18:56:04 10° N 19:01:06 46° WNW 19:05:56 10° SW visible
23 Jul 4.2 18:17:48 10° NNE 18:23:04 75° ESE 18:28:02 10° S visible
24 Jul 5.6 17:40:14 10° NE 17:44:48 30° E 17:49:13 10° SSE visible
25 Jul 6.6 17:04:22 10° ENE 17:06:19 12° E 17:08:14 10° ESE visible
25 Jul 4.1 18:40:28 10° N 18:45:39 66° WNW 18:50:37 10° SSW visible
26 Jul 4.7 18:02:27 10° NNE 18:07:32 51° E 18:12:07 11° S visible
27 Jul 6.1 17:25:20 10° NE 17:29:10 21° E 17:32:52 10° SE visible
27 Jul 4.6 19:03:21 10° N 19:08:09 39° WNW 19:12:45 10° SW visible
28 Jul 4.0 18:24:58 10° NNE 18:30:10 87° ESE 18:34:51 12° SSW visible
